Cleveland, OH

9:23 AM EST on February 13, 2016 (GMT -0500)
Burke Lakefront

Weather History for KBKL - February, 2012

Change the Weather History Date:

Thursday, February 2, 2012

  Actual Average Record
Temperature  
Mean Temperature 36 °F -  
Max Temperature 37 °F 35 °F 52 °F (2016)
Min Temperature 35 °F 23 °F 7 °F (2015)
Degree Days  
Heating Degree Days 29    
Moisture  
Dew Point 33 °F    
Average Humidity 86    
Maximum Humidity 93    
Minimum Humidity 75    
Precipitation  
Precipitation 0.00 in - - ()
Sea Level Pressure  
Sea Level Pressure 30.24 in    
Wind  
Wind Speed 5 mph (NNW)    
Max Wind Speed 8 mph    
Max Gust Speed -    
Visibility 8 miles    
Events      
Averages and records for this station are not official NWS values.
T = Trace of Precipitation, MM = Missing Value Source: NWS Daily Summary

Daily Weather History Graph

Daily Weather History Graph

Search for Another Location

Airport or City:

Trip Planner

Search our weather history database for the weather conditions in past years. The results will help you decide how hot, cold, wet, or windy it might be!

Date:

Astronomy

Feb. 02, 2012 Rise Set
Actual Time 7:37 AM EST 5:43 PM EST
Civil Twilight 7:08 AM EST 6:12 PM EST
Nautical Twilight 6:35 AM EST 6:45 PM EST
Astronomical Twilight 6:03 AM EST 7:18 PM EST
Moon 12:52 PM EST (2/2) 3:20 AM EST (2/2)
Length of Visible Light 11h 04m
Length of Day
10h 05m
Waxing Gibbous, 73% of the Moon is Illuminated
Feb 2
Waxing Gibbous
Feb 7
Full
Feb 14
Last Quarter
Feb 21
New
Feb 29
First Quarter

Hourly Weather History & Observations

Time (EST) Temp. Windchill Dew Point Humidity Pressure Visibility Wind Dir Wind Speed Gust Speed Precip Events Conditions
12:38 AM 37.4 °F 33.8 °F 33.8 °F 87% 30.08 in 4.0 mi NE 4.6 mph - N/A   Overcast
12:53 AM 37.9 °F 34.4 °F 34.0 °F 86% 30.10 in 4.0 mi ENE 4.6 mph - N/A   Overcast
1:53 AM 37.9 °F 34.4 °F 33.1 °F 83% 30.11 in 8.0 mi NE 4.6 mph - N/A   Overcast
2:02 AM 37.4 °F 32.1 °F 33.8 °F 87% 30.09 in 9.0 mi NE 6.9 mph - N/A   Overcast
2:14 AM 37.4 °F 32.1 °F 33.8 °F 87% 30.09 in 9.0 mi NE 6.9 mph - N/A   Overcast
2:53 AM 37.9 °F 32.7 °F 33.1 °F 83% 30.10 in 8.0 mi NE 6.9 mph - N/A   Overcast
3:53 AM 37.0 °F 32.4 °F 32.0 °F 82% 30.10 in 10.0 mi NNE 5.8 mph - N/A   Overcast
4:53 AM 37.0 °F 33.3 °F 33.1 °F 86% 30.11 in 9.0 mi NNE 4.6 mph - N/A   Overcast
5:53 AM 37.0 °F 34.5 °F 33.1 °F 86% 30.13 in 6.0 mi NNW 3.5 mph - N/A   Overcast
6:16 AM 37.4 °F 34.9 °F 33.8 °F 87% 30.12 in 6.0 mi North 3.5 mph - N/A   Overcast
6:49 AM 37.4 °F 34.9 °F 33.8 °F 87% 30.13 in 7.0 mi North 3.5 mph - N/A   Overcast
6:53 AM 37.0 °F 34.5 °F 34.0 °F 89% 30.14 in 7.0 mi North 3.5 mph - N/A   Overcast
7:10 AM 37.4 °F 33.8 °F 33.8 °F 87% 30.14 in 7.0 mi North 4.6 mph - N/A   Overcast
7:53 AM 37.0 °F 33.3 °F 34.0 °F 89% 30.17 in 7.0 mi NNW 4.6 mph - N/A   Overcast
8:53 AM 37.0 °F 31.6 °F 33.1 °F 86% 30.21 in 7.0 mi North 6.9 mph - N/A   Overcast
9:02 AM 37.4 °F 31.4 °F 32.0 °F 81% 30.19 in 9.0 mi North 8.1 mph - N/A   Overcast
9:53 AM 37.0 °F 31.0 °F 33.1 °F 86% 30.22 in 6.0 mi NNW 8.1 mph - N/A   Overcast
10:08 AM 37.4 °F 31.4 °F 33.8 °F 87% 30.20 in 6.0 mi NNW 8.1 mph - N/A   Overcast
10:53 AM 37.0 °F 33.3 °F 34.0 °F 89% 30.24 in 6.0 mi NW 4.6 mph - N/A   Overcast
11:53 AM 37.0 °F 31.6 °F 33.1 °F 86% 30.26 in 7.0 mi WNW 6.9 mph - N/A   Overcast
12:53 PM 37.0 °F 31.6 °F 34.0 °F 89% 30.26 in 6.0 mi NW 6.9 mph - N/A   Overcast
1:15 PM 37.4 °F 32.1 °F 33.8 °F 87% 30.24 in 8.0 mi WNW 6.9 mph - N/A   Overcast
1:23 PM 37.4 °F 32.1 °F 33.8 °F 87% 30.24 in 9.0 mi WNW 6.9 mph - N/A   Overcast
1:53 PM 37.9 °F 33.5 °F 33.1 °F 83% 30.27 in 10.0 mi WNW 5.8 mph - N/A   Overcast
2:22 PM 37.4 °F 32.1 °F 33.8 °F 87% 30.26 in 10.0 mi West 6.9 mph - N/A   Overcast
2:53 PM 37.0 °F 31.0 °F 33.1 °F 86% 30.30 in 6.0 mi West 8.1 mph - N/A   Overcast
3:13 PM 37.4 °F 32.1 °F 33.8 °F 87% 30.29 in 7.0 mi West 6.9 mph - N/A   Overcast
3:53 PM 37.0 °F 31.6 °F 33.1 °F 86% 30.32 in 7.0 mi West 6.9 mph - N/A   Overcast
4:53 PM 36.0 °F 30.3 °F 33.1 °F 89% 30.34 in 6.0 mi West 6.9 mph - N/A   Overcast
5:21 PM 35.6 °F 31.7 °F 33.8 °F 93% 30.33 in 5.0 mi West 4.6 mph - N/A   Overcast
5:53 PM 36.0 °F 32.1 °F 33.1 °F 89% 30.36 in 6.0 mi West 4.6 mph - N/A   Overcast
6:53 PM 36.0 °F 33.3 °F 33.1 °F 89% 30.38 in 6.0 mi WSW 3.5 mph - N/A   Overcast
7:53 PM 36.0 °F - 32.0 °F 86% 30.40 in 9.0 mi Calm Calm - N/A   Overcast
8:53 PM 36.0 °F - 30.9 °F 82% 30.40 in 9.0 mi Calm Calm - N/A   Overcast
9:53 PM 35.1 °F - 30.0 °F 82% 30.41 in 9.0 mi Calm Calm - N/A   Overcast
10:53 PM 35.1 °F - 28.9 °F 78% 30.43 in 10.0 mi Calm Calm - N/A   Mostly Cloudy
11:26 PM 35.6 °F - 28.4 °F 75% 30.41 in 10.0 mi Calm Calm - N/A   Partly Cloudy
11:53 PM 35.1 °F - 28.9 °F 78% 30.43 in 10.0 mi Calm Calm - N/A   Clear